RH
18 18 19 19 19 19 19 19 19 18 18 18 18 18 19 18 18 18 18 18 18 18 18 19 19 21 21 21 22 22 22 23 23 23 23 22 23 23 23 23 22 23 27 30 31 30 30 28 27 26 25 24 24 23 22 22 21 21 20 20 19 19 18
18 18 18 18 19 19 18 18 19 19 19 19 19 19 19 20 19 19 20 20 20 20 20 20 21 23 23 23 23 24 24 24 24 24 25 25 25 26 25 25 24 24 27 30 31 31 30 30 29 28 26 25 25 24 23 23 22 22 21 21 21 21 20
19 19 19 19 19 19 19 19 19 19 19 19 19 20 20 20 20 20 21 21 21 21 21 21 22 24 25 24 24 25 26 27 27 27 28 28 28 28 28 27 26 25 26 29 31 31 31 31 30 29 28 26 26 26 25 25 24 23 23 23 23 23 22
20 21 21 21 20 21 21 21 21 20 20 20 20 20 20 20 20 21 21 22 22 22 22 22 23 25 25 25 25 27 28 28 29 29 29 29 29 29 30 29 27 26 27 29 31 32 32 32 30 30 30 29 28 28 27 27 26 26 26 26 26 25 25
23 23 24 24 23 23 23 23 23 22 22 22 22 22 21 21 21 21 22 22 23 23 23 24 25 26 27 26 27 29 29 29 29 29 29 30 30 30 31 30 29 29 29 30 32 33 33 32 32 32 32 30 30 30 30 30 29 30 29 29 29 28 28
25 26 27 27 26 26 26 27 26 25 24 23 23 23 23 23 22 22 22 23 23 24 24 25 26 27 28 28 29 30 31 31 31 31 31 31 32 32 31 31 31 31 31 31 32 33 33 34 34 34 34 33 34 34 34 35 35 35 34 33 33 33 34
25 26 28 29 30 30 30 30 31 30 29 27 26 25 25 25 24 24 24 24 24 25 25 26 27 28 29 29 30 31 31 32 31 31 32 32 32 32 31 31 31 31 31 31 32 33 34 35 35 36 37 38 39 40 40 41 40 38 37 36 37 38 38
25 25 27 29 31 33 33 34 34 34 33 32 31 31 30 29 29 28 28 27 28 27 27 28 29 30 30 30 31 32 32 32 32 32 33 33 33 32 30 31 31 31 31 31 32 33 34 34 35 36 38 39 40 42 43 41 38 37 38 39 39 39 38
27 28 28 29 31 33 35 36 37 37 37 36 36 35 35 35 34 34 34 33 32 32 31 31 31 32 32 31 32 32 32 32 32 32 33 33 32 31 30 30 31 30 31 31 32 33 34 34 35 36 39 40 40 42 42 39 37 39 41 41 40 41 43
29 30 30 31 32 33 34 36 37 38 39 39 40 39 38 38 37 37 38 38 38 37 36 36 36 36 36 35 36 36 35 35 35 34 36 35 34 33 32 32 32 32 33 33 33 36 37 37 38 40 42 43 42 43 43 41 41 41 41 42 44 46 48
28 29 30 31 31 32 33 34 35 36 37 37 38 39 39 39 38 37 38 39 40 40 39 39 39 40 40 40 40 40 39 39 38 38 38 38 37 37 36 36 37 38 38 38 38 40 40 41 44 47 47 46 45 44 43 41 40 40 41 43 45 46 46
30 29 29 30 31 31 32 32 33 34 35 35 35 36 37 38 39 39 39 40 40 40 40 40 40 40 41 42 42 42 41 41 40 39 39 39 38 38 38 39 39 40 40 40 40 40 41 43 46 47 46 45 44 41 37 36 36 37 39 39 39 41 42
32 31 30 29 30 30 31 31 31 31 32 33 34 35 36 38 40 41 42 41 40 40 40 40 40 40 41 42 42 42 42 42 41 41 40 39 38 38 40 40 40 40 40 39 39 38 39 41 42 41 40 41 39 35 32 32 33 33 34 34 34 36 37
33 32 32 31 30 30 30 29 28 28 29 29 30 32 33 35 38 41 43 43 41 40 40 39 39 40 40 41 40 40 41 40 40 40 40 39 39 39 40 39 39 40 40 39 37 37 38 39 39 38 38 37 34 31 29 28 28 28 29 30 31 32 32
33 33 34 34 34 34 33 30 27 26 26 27 28 28 29 30 33 36 39 41 41 41 40 39 39 39 40 41 41 40 39 39 39 39 39 38 39 39 39 39 38 40 40 38 36 35 36 37 37 36 35 34 32 30 28 26 25 26 27 29 29 29 29
31 32 33 33 34 35 36 34 32 30 29 29 28 27 27 27 28 30 33 35 37 37 39 41 42 43 44 46 46 45 42 41 39 39 39 39 40 40 38 38 38 38 37 35 33 32 32 33 33 32 33 32 32 31 29 27 27 28 29 30 28 26 26
28 29 30 31 31 31 32 32 32 33 33 33 31 28 27 27 27 29 31 33 34 35 37 39 41 43 45 47 48 47 45 43 41 40 40 40 40 39 37 37 38 38 36 33 32 31 29 29 30 31 32 33 33 32 30 29 29 28 27 26 23 22 22
25 26 26 27 28 28 29 29 30 31 31 31 30 29 28 27 27 28 29 31 33 34 35 36 36 37 38 39 41 43 43 43 41 39 39 39 39 38 37 39 43 42 39 35 33 31 29 29 30 30 31 31 31 30 29 28 27 24 21 20 19 18 17
26 25 24 24 24 25 26 27 28 29 29 29 29 28 29 29 29 30 31 31 33 33 34 35 34 34 34 34 36 37 38 39 39 39 39 39 39 38 40 44 46 44 40 37 33 30 28 28 28 27 27 26 24 24 24 24 23 20 18 17 16 15 14
24 24 25 24 24 24 24 24 25 26 26 26 26 26 25 26 28 29 30 30 32 33 34 35 35 36 37 36 35 35 36 37 37 36 36 35 36 37 39 41 41 37 35 33 30 27 25 24 24 24 23 21 19 19 20 20 19 18 17 16 15 14 14
18 20 21 22 22 22 22 22 22 23 24 24 25 23 22 22 23 24 24 25 27 30 31 32 33 34 35 34 33 34 35 35 33 32 31 31 32 33 34 34 33 32 31 29 27 25 23 22 23 23 22 20 18 18 19 19 18 17 16 15 14 14 15
16 17 17 18 18 18 19 19 19 20 21 22 22 22 20 19 19 19 19 20 22 24 26 27 29 30 30 29 29 30 30 30 29 28 27 27 28 29 29 29 29 29 29 28 27 26 24 24 24 25 23 21 19 19 18 17 16 15 14 15 15 15 16
14 15 16 16 17 17 17 17 17 17 18 18 19 18 18 17 17 17 17 17 19 20 21 22 23 24 25 25 25 24 24 24 24 23 23 23 23 23 24 25 25 26 26 26 25 24 24 23 24 24 23 21 19 17 16 15 14 14 14 14 15 14 14
11 11 12 12 13 14 14 14 15 15 16 16 16 15 15 15 16 15 15 15 15 16 17 17 18 19 20 21 22 21 20 20 19 19 19 18 18 19 19 19 20 20 22 22 21 21 21 20 19 19 18 17 16 14 13 12 12 12 12 12 12 11 10
10 10 10 11 11 11 11 11 11 11 12 12 12 12 13 13 13 12 12 12 12 13 13 14 14 15 16 17 18 17 17 16 16 15 15 14 14 14 14 13 13 14 16 16 16 16 15 14 13 13 12 12 11 11 10 10 10 9 9 9 9 9 9
11 11 11 11 11 12 12 12 11 11 11 11 11 11 11 11 10 10 10 11 11 12 12 11 11 12 12 12 13 13 13 13 13 12 12 12 11 11 10 10 9 10 10 11 11 12 11 11 11 10 10 10 10 10 10 10 10 9 9 8 8 8 8
9 9 10 10 11 11 12 12 12 12 12 12 11 11 11 11 11 11 11 12 12 11 11 11 11 11 12 12 13 13 13 13 13 13 12 12 11 11 10 9 9 9 9 10 10 10 10 11 11 11 10 10 10 10 9 9 9 8 8 8 7 7 7
6 6 7 7 8 8 9 9 10 10 10 9 9 9 9 9 10 10 10 11 10 10 10 10 10 11 11 11 11 12 12 12 12 12 12 12 11 11 10 9 9 9 9 9 9 9 9 9 10 9 9 9 8 8 8 7 7 7 7 6 6 6 6
5 5 5 5 5 6 6 6 7 7 7 7 7 7 7 7 7 7 8 8 8 7 7 8 8 8 8 8 9 9 9 9 9 9 9 9 9 9 9 8 8 7 7 7 7 7 7 7 8 7 7 7 7 7 6 6 6 6 6 6 6 6 6
5 5 5 5 5 5 5 5 5 5 5 5 5 5 5 5 5 5 6 6 6 5 6 6 6 6 6 6 6 6 7 7 7 7 7 7 7 7 7 7 7 6 6 6 6 6 6 6 6 6 6 6 6 6 6 6 6 6 6 6 6 7 7
5 6 6 5 5 5 5 5 5 5 5 5 5 5 5 5 5 5 5 5 5 5 5 5 6 6 6 6 6 6 6 6 6 6 7 6 6 7 7 7 7 7 7 7 6 7 7 7 7 7 7 7 7 7 7 7 7 7 7 7 7 7 6
5 6 6 6 7 6 6 6 6 6 7 6 6 6 6 6 6 6 6 6 5 6 6 6 6 6 6 6 6 6 6 7 7 7 7 7 7 7 7 7 7 7 7 7 7 7 7 7 7 7 6 6 6 6 6 6 6 6 6 5 5 5 5
5 5 5 5 6 5 6 6 5 5 6 5 5 6 5 5 6 5 5 5 5 5 5 5 5 5 5 5 5 5 5 6 5 5 6 5 5 6 6 6 6 6 6 6 6 6 6 5 5 5 5 5 5 5 5 5 5 5 5 4 5 5 4
4 4 4 4 5 4 5 5 5 4 5 4 4 5 4 5 5 4 4 4 4 4 4 4 4 5 4 4 4 4 4 5 4 4 5 5 4 5 5 5 5 5 5 5 5 5 5 5 5 5 5 5 5 5 5 5 4 4 5 4 4 4 4
4 4 4 4 4 4 4 5 5 5 5 4 4 4 4 4 5 4 4 4 4 4 4 4 4 4 4 4 4 4 4 4 4 4 4 4 4 4 4 4 5 5 5 5 5 5 5 5 5 5 5 5 5 5 5 5 5 5 5 5 5 5 5
3 4 4 4 4 4 4 5 5 5 5 5 4 5 4 5 5 5 4 4 4 4 4 4 4 5 4 4 4 4 4 5 5 5 5 5 5 5 4 5 5 5 5 6 5 5 6 6 6 6 6 6 6 6 6 6 6 6 6 6 6 6 6
Wind_Speed
104 105 105 106 106 106 107 107 107 108 108 108 108 108 108 108 109 108 108 108 108 108 108 109 109 109 110 111 111 111 111 112 113 113 113 113 113 113 113 114 113 111 110 110 112 113 114 114 114 113 113 112 112 112 111 110 109 109 109 108 108 107 107
103 103 103 104 104 104 105 105 105 106 106 106 106 106 107 107 107 107 107 107 107 108 108 108 108 108 109 110 110 110 111 111 112 112 112 112 113 113 113 113 113 111 110 110 110 111 112 112 113 113 112 112 112 111 110 110 109 109 109 108 108 107 107
102 102 102 102 103 103 103 103 104 104 104 104 104 104 105 105 105 105 106 106 106 107 107 107 107 107 108 109 109 109 110 110 111 111 111 112 112 112 113 113 112 111 110 109 110 110 111 111 112 112 112 111 111 111 110 110 109 109 108 108 108 108 107
101 101 102 102 102 102 102 102 102 103 103 103 103 103 103 104 104 104 104 104 105 106 106 106 106 106 107 108 108 108 109 109 110 110 111 111 111 111 112 112 112 111 110 109 109 110 110 111 111 111 111 111 111 111 110 110 109 109 108 108 108 108 108
100 101 101 101 102 102 102 102 102 102 102 102 102 102 102 103 103 103 103 103 104 104 104 104 104 105 106 107 106 107 108 109 109 110 110 110 110 111 111 111 111 111 110 110 109 109 110 110 110 110 110 110 110 110 109 109 109 109 108 108 108 108 107
100 100 100 101 101 102 102 102 102 102 102 102 102 102 102 102 102 102 102 102 102 103 103 103 103 104 105 105 105 106 107 108 108 109 109 109 109 110 110 110 110 110 110 110 109 109 109 109 109 109 109 108 108 108 108 108 108 108 108 108 108 107 107
100 100 100 101 101 101 102 102 102 102 103 103 102 102 102 102 102 102 102 102 102 102 102 102 103 103 104 104 104 105 106 107 107 108 108 108 109 110 110 110 110 110 110 109 109 109 109 108 108 108 107 107 107 107 107 107 108 108 108 108 108 107 107
102 101 101 101 101 102 102 102 103 103 103 103 103 102 102 102 102 102 101 101 101 101 102 102 102 103 103 104 104 105 106 106 107 107 107 108 109 109 110 109 109 109 109 109 108 108 108 108 108 107 107 107 107 107 107 108 108 108 108 108 108 107 107
102 102 102 102 102 102 102 103 103 103 103 103 103 103 102 102 102 102 102 102 102 102 102 102 103 103 104 104 104 105 106 106 107 107 107 108 109 109 109 109 109 109 109 109 108 108 108 108 107 107 107 107 107 108 108 109 108 108 108 108 108 107 107
102 102 103 103 103 103 103 103 104 104 104 104 104 104 104 103 103 103 103 103 103 103 103 103 103 104 104 105 105 105 106 107 107 108 108 108 109 109 109 109 109 109 109 109 109 108 108 108 108 107 108 108 108 109 109 109 109 109 108 108 107 107 107
103 103 103 103 103 104 104 104 104 105 105 105 105 105 105 105 104 104 104 104 104 104 104 104 104 104 105 105 106 106 107 107 108 108 109 109 110 110 110 110 110 110 110 110 109 109 109 109 108 108 109 109 110 110 111 110 110 109 108 107 107 106 106
103 103 103 103 103 104 104 104 105 105 105 106 106 105 105 105 105 105 105 105 105 105 105 105 105 106 106 107 107 108 108 109 109 110 110 110 110 110 110 110 110 110 110 110 110 110 110 109 109 110 110 110 111 112 111 110 109 108 108 107 107 106 106
104 104 104 104 104 104 104 105 105 105 105 105 106 106 105 105 105 105 106 106 107 107 106 106 107 107 107 108 108 109 109 110 110 111 111 111 111 111 111 111 111 111 112 112 112 111 110 110 111 111 111 111 112 113 111 110 109 109 108 108 107 107 107
105 105 105 105 105 105 105 106 106 106 106 106 106 106 106 106 105 106 107 108 108 108 108 108 108 108 108 109 110 110 111 111 112 112 113 113 113 112 112 112 112 112 113 113 113 112 111 111 112 112 112 113 114 113 112 111 110 109 109 108 108 108 108
106 106 106 106 106 107 107 107 107 107 107 107 107 107 107 107 106 107 107 108 109 109 109 109 109 109 110 110 111 112 112 113 113 113 113 113 113 113 113 113 113 113 114 114 114 113 112 112 113 113 113 114 114 114 113 112 111 110 109 109 109 109 109
106 107 107 107 108 108 108 109 109 109 109 109 109 109 109 109 108 108 108 109 109 110 110 110 111 111 111 111 112 113 114 114 114 114 114 114 114 114 114 114 113 114 115 115 115 115 114 114 114 114 114 114 115 115 115 113 112 111 111 111 111 110 110
106 107 107 108 108 108 109 109 110 110 110 111 111 111 111 110 110 109 109 110 110 110 111 111 112 112 112 113 113 114 115 116 116 116 115 115 115 115 115 114 114 115 116 116 116 116 115 114 114 114 114 114 115 116 116 115 114 113 113 113 112 111 111
106 107 107 108 108 108 109 109 110 111 111 112 112 112 112 111 111 110 110 110 111 111 112 112 113 113 113 113 113 115 116 117 117 117 116 116 116 116 115 114 115 116 118 118 118 118 116 115 115 115 115 115 116 116 116 116 116 115 114 114 113 113 112
108 108 108 108 108 108 109 109 110 111 111 112 112 112 112 112 112 112 111 111 112 112 112 113 113 114 114 114 114 115 116 117 117 117 117 117 117 116 115 115 117 118 119 119 119 119 118 116 116 116 116 116 117 117 117 117 116 116 115 115 114 113 112
109 109 110 110 110 110 110 110 110 111 112 112 112 113 112 112 112 112 112 112 112 112 113 113 114 114 115 115 116 116 116 117 117 118 118 117 117 116 115 116 118 119 119 119 120 120 119 117 117 117 117 117 117 117 117 117 117 116 116 115 114 114 112
108 109 110 111 111 111 112 112 112 112 112 113 113 113 113 113 112 112 112 112 112 113 113 114 114 115 116 117 117 117 117 118 118 119 119 118 118 117 117 118 119 119 120 120 120 120 119 118 118 118 119 119 118 118 118 118 117 117 116 115 114 114 113
107 108 108 109 110 111 112 112 112 112 112 113 113 114 115 114 113 113 112 112 112 112 113 113 114 115 116 117 117 118 118 119 119 120 119 119 118 118 119 119 120 120 120 120 120 120 120 119 119 119 120 120 120 119 119 119 118 117 116 115 115 114 114
106 107 107 108 109 110 111 111 112 112 112 112 113 114 114 114 113 113 112 112 112 112 113 113 113 114 115 116 117 118 118 118 119 119 119 118 118 118 119 120 120 119 120 120 120 120 120 120 119 120 120 121 121 120 120 119 118 117 116 115 115 115 115
104 105 106 107 108 109 109 110 111 111 111 112 112 113 113 113 113 113 112 111 111 111 112 112 112 113 114 115 116 117 117 118 118 118 118 118 118 118 119 119 118 118 118 119 120 120 119 119 119 119 119 120 120 120 119 118 117 116 116 115 115 115 114
103 104 104 105 106 107 108 108 109 109 110 110 111 112 112 112 113 112 112 111 110 110 111 112 112 112 113 113 114 115 116 117 117 117 117 117 117 118 118 118 117 116 117 117 118 118 119 119 118 118 118 118 118 118 118 117 116 116 115 114 114 114 113
102 103 103 104 104 105 106 107 107 108 108 109 110 111 111 111 110 110 109 109 109 110 111 111 111 111 111 112 113 114 114 115 116 116 117 117 117 117 117 117 116 115 115 115 116 116 117 117 117 116 116 116 116 117 116 116 115 115 114 113 112 112 111
98 99 100 101 102 102 103 104 106 107 108 109 109 109 109 109 108 108 108 108 109 110 110 110 110 110 110 110 111 112 113 113 114 115 116 116 116 116 116 115 115 114 114 113 113 114 114 115 114 114 114 114 115 115 114 114 114 113 112 111 111 110 110
95 96 97 97 98 98 99 100 102 104 105 106 106 106 106 106 106 106 106 107 108 108 108 108 108 108 108 108 109 110 110 111 112 113 113 114 114 114 114 114 113 113 112 112 111 112 112 112 112 112 112 113 114 113 113 112 112 111 110 110 109 109 109
95 95 95 95 95 96 97 98 100 101 102 102 103 104 104 103 103 103 103 105 106 106 105 105 105 106 106 106 107 107 108 109 109 110 110 111 111 112 112 112 112 112 111 110 110 110 110 110 110 110 110 111 112 112 111 111 110 109 108 108 108 107 107
95 95 95 95 95 95 96 97 98 99 99 100 100 101 101 100 100 100 101 103 104 103 102 102 103 104 104 104 104 105 106 106 107 107 108 108 108 109 110 110 110 110 109 108 108 108 108 108 108 108 108 109 109 109 109 108 108 107 106 106 105 105 104
92 93 94 94 94 95 95 95 96 97 98 99 99 98 98 98 97 98 100 101 100 99 98 98 99 101 102 102 102 102 103 103 103 104 104 105 105 105 106 106 107 107 106 106 106 106 106 106 105 105 105 105 106 106 106 105 105 104 104 103 103 102 102
91 91 91 92 93 94 94 94 95 95 96 97 98 97 96 95 95 97 98 98 97 96 95 96 96 97 99 99 99 99 100 100 100 101 101 101 101 102 102 103 103 103 103 104 103 103 104 103 103 102 102 102 103 103 103 102 102 102 101 101 100 100 100
90 89 89 90 91 91 92 93 93 94 94 95 95 95 95 94 95 96 96 95 94 94 94 94 95 95 96 96 96 96 97 97 97 98 98 98 98 98 99 99 99 100 100 100 100 100 101 101 101 100 100 100 100 100 99 99 99 99 99 98 98 97 97
88 88 88 89 89 89 90 91 92 93 93 93 93 93 93 93 94 94 94 93 93 92 92 92 93 94 94 94 94 94 94 95 95 95 95 95 95 95 95 96 96 96 96 96 96 97 97 98 98 97 97 97 96 96 96 96 96 96 96 95 95 94 93
85 85 86 87 88 88 88 89 90 91 92 92 92 91 91 92 92 93 92 92 91 91 90 91 91 91 92 92 92 92 92 92 92 93 93 93 92 92 92 92 93 93 93 92 92 93 93 94 94 94 93 93 92 92 92 92 92 92 92 92 91 90 90
84 82 82 83 85 86 86 87 88 89 89 89 89 89 90 90 91 91 91 90 89 89 89 89 89 89 90 90 90 90 90 90 90 90 90 90 90 90 89 89 89 89 89 89 89 90 90 90 90 90 90 90 89 89 89 90 90 89 89 89 89 88 87
Wind_Direction
262 262 262 262 263 263 263 264 264 265 265 265 265 266 266 266 266 266 267 267 267 267 267 267 267 267 267 267 267 268 268 268 268 269 269 269 270 270 270 271 271 271 271 271 272 272 273 274 274 275 275 275 275 275 276 276 276 276 276 276 277 277 277
262 262 262 262 263 263 263 263 263 264 264 264 265 265 265 265 266 266 266 266 266 267 267 267 267 267 267 267 268 268 268 269 269 269 270 270 270 271 271 271 271 271 272 272 272 272 273 274 274 275 275 275 276 276 276 276 277 277 277 277 277 277 277
263 263 263 263 263 263 263 263 263 263 264 264 264 264 264 265 265 265 266 266 266 266 266 267 267 267 267 267 268 268 268 269 269 269 270 270 270 271 271 271 271 272 272 272 272 272 273 273 274 274 275 275 276 276 276 277 277 277 277 277 277 277 277
263 263 263 263 263 263 263 263 263 264 264 264 264 264 264 264 264 265 265 265 265 266 266 266 266 266 267 267 267 268 268 268 269 269 269 269 270 270 271 271 271 272 272 272 272 272 273 273 273 274 274 275 275 276 276 276 277 277 277 277 277 276 276
263 263 263 263 263 263 263 263 263 263 263 263 264 264 264 264 264 264 265 265 265 265 266 266 266 266 267 267 267 267 268 268 268 268 269 269 269 270 270 271 271 271 272 272 272 272 272 272 273 273 274 274 275 275 275 276 276 276 276 276 275 275 276
262 262 262 262 262 263 263 263 263 263 263 263 263 263 263 264 264 264 264 265 265 265 266 266 266 266 267 267 267 267 267 268 268 268 269 269 269 270 270 270 271 271 271 271 271 271 272 272 272 273 273 274 274 274 274 275 275 275 275 275 275 275 276
261 261 261 262 262 262 262 262 263 263 263 263 263 263 263 263 264 264 264 264 265 265 265 266 266 266 266 267 267 267 267 268 268 268 268 269 269 269 269 270 270 270 271 271 271 271 272 272 272 272 273 273 273 273 274 274 274 274 274 274 275 275 275
262 262 262 261 262 262 262 262 262 263 263 263 263 263 264 264 264 264 264 264 264 264 265 265 265 266 266 266 267 267 267 268 268 268 268 269 269 269 269 270 270 270 271 271 271 271 271 272 272 272 272 273 273 273 273 273 273 274 274 275 275 275 276
263 263 263 262 262 262 262 262 262 262 263 263 263 263 263 263 264 264 264 265 265 265 265 265 265 265 266 266 266 267 267 267 268 268 268 269 269 269 270 270 270 271 271 271 271 272 272 272 272 273 273 273 273 273 273 273 274 274 274 274 275 276 276
263 263 263 263 262 262 262 262 262 262 262 262 262 263 263 263 263 263 264 264 264 264 265 265 265 266 266 266 267 267 267 267 268 268 268 269 269 270 270 270 271 271 271 272 272 272 272 272 273 273 273 273 273 273 273 273 273 273 273 274 275 275 275
263 263 263 263 263 263 263 262 262 262 262 262 262 262 263 263 263 263 263 263 264 264 264 264 265 265 266 266 266 267 267 267 268 268 268 269 269 269 270 270 271 271 271 272 272 272 272 272 273 273 273 273 273 272 272 272 272 273 273 274 274 274 274
263 263 263 263 263 263 263 263 263 263 263 263 263 263 263 263 263 264 264 264 264 264 264 264 265 265 265 266 266 266 267 267 267 268 268 268 269 269 270 270 270 271 271 271 271 271 272 272 272 272 272 272 272 272 272 272 272 273 273 273 273 273 273
263 263 263 263 263 263 263 263 263 263 263 263 263 263 263 263 263 264 264 264 264 264 264 265 265 265 265 266 266 266 267 267 267 268 268 268 269 269 269 270 270 270 271 271 271 271 271 271 271 271 272 272 272 271 271 272 272 272 272 272 273 273 273
263 263 263 263 263 263 263 263 263 263 263 263 263 263 263 263 263 263 264 264 265 265 265 265 265 265 266 266 266 266 266 267 267 267 268 268 268 269 269 269 270 270 271 271 271 271 271 271 271 271 272 272 272 272 272 272 272 272 272 273 273 273 273
263 263 263 263 263 263 264 264 264 263 263 263 263 263 263 263 263 263 263 264 264 264 265 265 266 266 266 266 267 267 267 267 267 267 268 268 269 269 269 269 270 270 270 270 271 271 271 271 271 271 271 272 272 272 272 272 273 273 273 273 273 273 273
263 263 262 263 263 263 263 263 264 264 264 264 264 264 263 263 263 263 263 263 264 264 265 265 266 266 266 266 267 267 267 267 268 268 268 268 269 269 269 269 270 270 270 270 270 270 270 270 271 271 271 272 272 273 273 273 273 274 274 274 274 274 274
263 263 263 263 263 263 263 263 263 264 264 264 264 264 264 264 264 264 264 264 264 264 265 265 265 265 265 266 266 266 267 267 268 268 268 268 268 269 269 269 270 270 270 270 270 270 270 270 271 271 272 272 272 273 273 273 274 274 274 273 274 274 274
265 264 264 264 263 263 263 263 263 263 263 264 264 264 265 265 265 265 265 265 265 265 265 265 265 265 265 265 265 266 266 267 267 268 268 268 269 269 269 270 270 270 270 270 271 271 271 271 271 271 272 272 272 272 273 273 273 273 273 273 274 274 274
266 266 266 265 265 264 264 264 264 264 264 264 264 264 265 265 265 265 265 265 265 266 266 266 266 266 267 267 266 266 266 267 267 268 268 268 268 269 269 270 270 270 270 270 271 271 271 271 271 271 272 272 272 272 272 273 273 273 273 274 274 274 275
265 265 265 266 266 265 265 265 265 264 264 264 265 264 264 264 264 264 265 265 265 265 266 266 267 267 268 268 267 267 267 268 268 268 268 268 268 269 269 269 269 269 270 270 270 271 271 271 272 272 272 272 272 272 273 273 274 274 274 275 275 275 276
264 264 264 264 265 265 265 265 265 265 265 265 265 265 265 265 264 264 264 264 264 265 265 265 266 266 266 267 267 267 267 268 268 268 268 268 269 269 269 269 269 269 270 270 271 271 272 272 273 273 273 273 273 273 274 274 274 274 275 275 276 276 277
264 264 264 264 264 264 264 265 265 264 264 265 265 265 265 265 265 265 265 264 264 264 264 264 265 265 265 266 266 266 266 267 267 267 268 268 268 269 269 269 269 269 270 271 271 272 272 272 273 273 273 273 274 274 274 274 274 275 275 276 276 276 277
264 264 264 264 264 264 265 265 265 265 265 265 265 265 265 265 265 265 265 265 265 264 264 264 264 264 265 265 265 266 266 266 266 267 267 267 267 268 268 268 268 269 269 270 270 271 271 271 271 272 272 273 273 273 273 274 274 275 275 276 276 276 276
264 264 264 264 264 264 264 264 264 265 265 265 265 265 265 265 265 265 265 265 265 265 265 265 265 265 265 265 265 266 266 266 266 267 267 267 267 267 267 267 267 268 268 269 269 270 270 270 271 271 271 272 273 273 274 274 275 275 275 275 275 275 275
265 265 265 265 264 265 265 265 265 265 265 265 265 265 265 265 265 265 266 266 266 266 265 265 265 265 265 265 265 266 266 267 267 267 268 268 268 268 268 268 268 268 268 269 269 270 270 270 271 271 272 272 273 273 274 274 274 274 274 274 275 275 275
265 265 265 265 265 265 265 266 266 266 266 266 265 265 265 265 265 266 266 266 266 266 265 265 265 265 265 265 266 266 266 267 267 268 268 268 268 268 269 269 269 269 269 269 269 270 270 271 271 272 272 272 273 273 273 274 274 274 274 274 274 274 274
265 265 265 265 265 265 265 266 266 266 266 266 266 266 266 266 266 266 266 266 266 266 266 266 266 266 266 266 266 266 266 267 267 267 268 268 268 269 269 269 270 270 270 270 270 270 271 271 271 272 272 272 272 272 273 273 273 273 274 274 274 274 274
267 266 266 266 265 265 265 265 265 265 265 265 266 266 266 266 266 266 266 266 266 266 266 266 266 266 266 266 266 266 266 266 267 267 267 268 268 269 269 270 270 270 270 270 270 270 270 271 271 271 271 272 272 272 272 272 273 273 273 273 274 274 274
269 268 268 267 267 266 266 266 265 265 266 266 266 266 266 266 266 265 265 265 265 265 265 266 266 266 266 266 266 266 266 266 266 266 267 267 268 268 269 269 269 269 270 270 270 270 270 270 270 270 270 271 271 271 272 272 272 273 273 273 273 273 273
269 269 269 268 268 267 267 267 267 267 267 266 266 266 266 266 266 266 266 265 265 265 265 266 266 266 266 266 266 266 265 265 266 266 266 266 267 267 268 268 269 269 269 269 269 269 269 269 269 269 270 270 270 271 271 271 272 272 272 272 272 272 273
268 268 268 268 268 268 268 268 267 268 268 268 267 267 267 267 267 267 266 266 266 266 266 266 266 266 266 266 265 265 265 265 265 266 266 266 266 266 267 267 268 268 269 269 269 269 269 269 269 269 269 269 270 270 271 271 271 271 271 272 272 272 272
268 268 268 268 268 268 268 268 268 268 268 268 268 268 268 268 268 268 267 267 267 267 267 267 266 266 266 266 266 266 266 266 266 266 266 266 266 266 267 267 267 268 268 268 269 269 269 269 269 269 269 269 270 270 270 271 271 271 271 271 271 272 272
269 269 268 268 268 268 268 268 268 268 268 268 268 268 268 268 268 268 268 268 268 268 268 268 267 267 267 267 267 266 266 266 266 266 266 266 266 266 266 266 267 267 267 268 268 269 269 269 269 269 269 269 269 270 270 270 270 271 271 271 271 271 271
268 269 269 269 269 269 268 269 269 269 269 269 269 269 269 269 268 268 268 268 268 268 268 268 268 267 267 267 267 267 267 267 267 267 267 266 266 266 266 266 267 267 267 267 267 268 268 269 269 269 269 269 269 269 270 270 270 270 270 270 270 270 270
268 268 268 269 269 269 269 269 269 269 269 269 269 269 269 269 269 269 269 269 269 269 268 268 268 268 268 268 267 267 267 267 267 267 267 267 267 267 267 267 267 267 267 267 267 268 268 268 268 269 269 269 270 270 270 270 270 270 270 270 270 270 270
269 268 268 268 268 269 269 269 269 269 269 269 269 269 270 269 269 269 269 269 269 269 269 269 268 268 268 268 268 268 268 268 268 268 268 268 268 268 268 267 267 267 268 268 268 268 268 268 269 269 269 269 270 270 270 270 270 270 270 270 270 270 270